Miscellaneous Local Product
Issued by NWS Hastings, NE

Home | Current Version | Previous Version | Text Only | Print | Product List | Glossary On
Versions: 1 2 3 4 5 6 7 8 9 10 11 12 13 14 15 16 17 18 19 20 21 22 23 24 25 26 27 28 29 30 31 32 33 34 35 36 37 38 39 40 41 42 43 44 45 46 47 48 49 50
320
AXUS43 KGID 290302
MISGRI

GID CWA HOURLY WEATHER ROUNDUP
NATIONAL WEATHER SERVICE HASTINGS NE
1000 PM CDT TUE MAR 28 2017

NOTE: "FAIR" INDICATES FEW OR NO CLOUDS BELOW 12,000 FEET WITH NO
SIGNIFICANT WEATHER AND/OR OBSTRUCTIONS TO VISIBILITY.

...SOUTH CENTRAL NEBRASKA...

CITY           SKY/WX    TMP DP  RH WIND       PRES   REMARKS
GRAND ISLAND   LGT RAIN  43  43 100 NE9       30.08R FOG
HASTINGS       LGT RAIN  43  42  97 NE9       30.07S FOG
KEARNEY        CLOUDY    43  39  87 NE13      30.06F
ORD            CLOUDY    46  40  79 E3        30.07F
YORK           LGT RAIN  45  43  93 NE8       30.09R
AURORA         RAIN      44  43  97 NE8       30.08R
LEXINGTON      RAIN      43  41  91 E9        30.06R
HOLDREGE       LGT RAIN  42  41  95 NE13      30.04R
HEBRON         LGT RAIN  46  43  90 NE8       30.05S

...NEBRASKA PANHANDLE...

CITY           SKY/WX    TMP DP  RH WIND       PRES   REMARKS
CHADRON        LGT RAIN  42  38  85 E3        30.13R
ALLIANCE       LGT RAIN  39  38  96 E9        30.10R WCI  33
SCOTTSBLUFF    LGT RAIN  41  38  89 E9        30.11R
SIDNEY         LGT RAIN  39  37  92 E6        30.07R WCI  35

...WESTERN AND NORTH CENTRAL NEBRASKA...

CITY           SKY/WX    TMP DP  RH WIND       PRES   REMARKS
VALENTINE      CLOUDY    42  39  89 NE9       30.13S
AINSWORTH      DRIZZLE   43  43  99 NE12      30.12S
ONEILL         CLOUDY    48  42  79 N8        30.10F
BROKEN BOW     CLOUDY    45  40  82 E5        30.07S
IMPERIAL       LGT RAIN  43  41  93 E12       30.05R FOG
NORTH PLATTE   LGT RAIN  44  41  89 NE7       30.07R FOG
MCCOOK         CLOUDY    44  43  96 NE17      30.02R FOG

...EASTERN NEBRASKA...

CITY           SKY/WX    TMP DP  RH WIND       PRES   REMARKS
NORFOLK        MOCLDY    47  41  80 E3        30.09S
SO SIOUX CITY  CLOUDY    48  42  80 E5        30.13S
TEKAMAH        CLOUDY    49  42  77 E8        30.11S
COLUMBUS       CLOUDY    45  39  81 NE8       30.09S
ALBION         CLOUDY    46  41  84 CALM      30.09S
OMAHA EPPLEY   CLOUDY    50  41  71 NE15      30.08F
OFFUTT AFB     CLOUDY    49  42  79 NE8       30.07F
MILLARD        CLOUDY    51  44  76 NE5       30.08F
LINCOLN        LGT RAIN  48  42  80 NE10      30.07F
NEBRASKA CITY  CLOUDY    49  42  76 NE18      30.02F
BEATRICE       LGT RAIN  48  43  83 NE7       30.06R
FALLS CITY     LGT RAIN  51  47  86 E10       30.04R

...NORTHERN KANSAS...

CITY           SKY/WX    TMP DP  RH WIND       PRES   REMARKS
GOODLAND       CLOUDY    40  40 100 E14       29.97R FOG     WCI  32
HILL CITY      CLOUDY    45  44  97 NE17G26   29.99R FOG
NORTON         LGT RAIN  43  39  87 NE12      29.99F
PHILLIPSBURG   CLOUDY    45  45 100 NE10      30.02R
HAYS             N/A     46  45  96 NE18      29.94R
RUSSELL        LGT RAIN  46  45  96 E22G35    29.88F
CONCORDIA      LGT RAIN  46  45  96 NE7       30.03R FOG
SALINA         HVY RAIN  51  49  92 N13       29.99R FOG
TOPEKA         CLOUDY    53  51  93 E13       30.00R



USA.gov is the U.S. government's official web portal to all federal, state and local government web resources and services.